Location: Penzberg
(47.7615°N, 11.3159°E)
Time: 02:58:14
(UTC+01:00)

ISS - Pass Details

Date: 12 January 2018
Orbit: 402 x 407 km, 51.6° (Epoch: 23 January)

Event Time Altitude Azimuth Distance (km) Brightness Sun altitude
Exits shadow 06:23:27 38° 267° (W) 639 -3.3 -15.8°
Maximum altitude 06:24:24 56° 210° (SSW) 491 -3.6 -15.6°
Drops below altitude 10° 06:27:38 10° 131° (SE) 1,463 0.0 -15.1°
Sets 06:29:43 0° 127° (SE) 2,321 1.4 -14.8°
